Regional Weather Roundup
Issued by NWS State College, PA

Home | Current Version | Previous Version | Graphics & Text | Print | Product List | Glossary On
Versions: 1 2 3 4 5 6 7 8 9 10 11 12 13 14 15 16 17 18 19 20 21 22 23 24 25 26 27 28 29 30 31 32 33 34 35 36 37 38 39 40 41 42 43 44 45 46 47 48 49 50
000
ASUS41 KCTP 250710
RWRCTP

REGIONAL WEATHER ROUNDUP
NATIONAL WEATHER SERVICE STATE COLLEGE PA
300 AM EDT TUE JUL 25 2017

Note: "fair" indicates few or no clouds below 12,000 feet with no
significant weather and/or obstructions to visibility.

* = STATION THAT DOES NOT REPORT PRECIPITATION /E.G. RAIN...SNOW...ETC/
    THUNDER OR FOG.

PAZ002>004-007>009-013>016-020>023-029>032-250800-
WESTERN PENNSYLVANIA

CITY           SKY/WX    TMP DP  RH WIND       PRES   REMARKS
ERIE           CLOUDY    64  58  80 N10       30.06R
MEADVILLE      CLOUDY    59  59 100 NW3       30.08S
FRANKLIN*      CLOUDY    59  54  82 NW7       30.08S
NEW CASTLE     CLOUDY    63  56  78 W3        30.09S
BEAVER COUNTY  NOT AVBL
BUTLER*        CLOUDY    63  54  72 W3        30.08S
PITTSBURGH INT CLOUDY    64  56  75 NW7       30.08S
PITTSBURGH     CLOUDY    63  53  70 NW5       30.07S
INDIANA*       CLOUDY    63  57  82 VRB5      30.09S
LATROBE        CLOUDY    63  57  82 W7        30.08S
WASHINGTON CO* CLOUDY    63  55  77 W5        30.09S
$$

PAZ004>006-010>012-017>019-024>028-033>037-041-042-045-046-049>053-250800-
CENTRAL PENNSYLVANIA

CITY           SKY/WX    TMP DP  RH WIND       PRES   REMARKS
BRADFORD       LGT RAIN  59  59 100 NW8       30.04R FOG
DUBOIS         CLOUDY    59  56  89 W9        30.04S
CLEARFIELD     CLOUDY    61  58  90 VRB3      30.04S
JOHNSTOWN      CLOUDY    60  54  80 W9        30.06F
ALTOONA        CLOUDY    64  55  72 NW8       30.04S
STATE COLLEGE  MOCLDY    64  56  77 W8        30.01S
WILLIAMSPORT   CLOUDY    69  59  70 W8        29.95S
SELINSGROVE    MOCLDY    62  61  96 CALM      29.98R
FT INDIANTOWN  FAIR      62  62  99 CALM      29.97R
CAPITAL CITY   FAIR      68  57  68 W5        29.97S
HARRISBURG     NOT AVBL
YORK           NOT AVBL
$$

PAZ038>040-043-044-047-048-054-055-060>062-067>071-250800-
EASTERN PENNSYLVANIA

CITY           SKY/WX    TMP DP  RH WIND       PRES   REMARKS
SCRANTON       CLOUDY    67  63  87 CALM      29.96S
MOUNT POCONO   LGT RAIN  60  60 100 CALM      29.99S VSB 1/4
ALLENTOWN      CLOUDY    66  62  87 E5        29.97S
QUAKERTOWN*    CLOUDY    64  64 100 CALM      29.98S
READING        FAIR      68  68 100 N6        29.95S
LANCASTER      FAIR      67  63  87 N5        29.96S
COATESVILLE    NOT AVBL
POTTSTOWN      CLOUDY    64  64 100 E6        29.98S FOG
BLUE BELL      CLOUDY    63  63 100 NE3       29.97F
DOYLESTOWN     CLOUDY    63  62  97 CALM      29.96F
WILLOW GROVE   NOT AVBL
NORTH PHILA    CLOUDY    67  64  90 NE6       29.98S
PHILADELPHIA   CLOUDY    67  65  93 NE7       29.95S
$$




USA.gov is the U.S. government's official web portal to all federal, state and local government web resources and services.